Location: Pasadena, ca
(34.1243°N, 118.1037°W)
Time: 08:51:27
(UTC-08:00)

Envisat - Pass Details

Date: 10 October 2017
Orbit: 764 x 766 km, 98.2° (Epoch: 18 December)

Event Time Altitude Azimuth Distance (km) Brightness Sun altitude
Exits shadow 21:28:10 20° 317° (NW) 1,710 5.2 -38.4°
Drops below altitude 10° 21:29:56 10° 329° (NNW) 2,308 5.9 -38.8°
Sets 21:32:25 0° 338° (NNW) 3,238 6.7 -39.2°
